QPF
0.00 0.00 0.00 0.00 0.00 0.00 0.00 0.00 0.00 0.00 0.00 0.00 0.00 0.00 0.00 0.00 0.00 0.00 0.00 0.00 0.00 0.00
0.00 0.00 0.00 0.00 0.00 0.00 0.00 0.00 0.00 0.00 0.00 0.00 0.00 0.00 0.00 0.00 0.00 0.00 0.00 0.00 0.00 0.00
0.00 0.00 0.00 0.00 0.00 0.00 0.00 0.00 0.00 0.00 0.00 0.00 0.00 0.00 0.00 0.00 0.00 0.00 0.00 0.00 0.00 0.00
0.00 0.00 0.00 0.00 0.00 0.00 0.00 0.00 0.00 0.00 0.00 0.00 0.00 0.00 0.00 0.00 0.00 0.00 0.00 0.00 0.00 0.00
0.00 0.00 0.00 0.00 0.00 0.00 0.00 0.00 0.00 0.00 0.00 0.00 0.00 0.00 0.00 0.00 0.00 0.00 0.00 0.00 0.00 0.00
0.00 0.00 0.00 0.00 0.00 0.00 0.00 0.00 0.00 0.00 0.00 0.00 0.00 0.00 0.00 0.00 0.00 0.00 0.00 0.00 0.00 0.00
0.00 0.00 0.00 0.00 0.00 0.00 0.00 0.00 0.00 0.00 0.00 0.00 0.00 0.00 0.00 0.00 0.00 0.00 0.00 0.00 0.00 0.00
0.00 0.00 0.00 0.00 0.00 0.00 0.00 0.00 0.00 0.00 0.00 0.00 0.00 0.00 0.00 0.00 0.00 0.00 0.00 0.00 0.00 0.00
0.00 0.00 0.00 0.00 0.00 0.00 0.00 0.00 0.00 0.00 0.00 0.00 0.00 0.00 0.00 0.00 0.00 0.00 0.00 0.00 0.00 0.00
0.00 0.00 0.00 0.00 0.00 0.00 0.00 0.00 0.00 0.00 0.00 0.00 0.00 0.00 0.00 0.00 0.00 0.00 0.00 0.00 0.00 0.00
0.00 0.00 0.00 0.00 0.00 0.00 0.00 0.00 0.00 0.00 0.00 0.00 0.00 0.00 0.00 0.00 0.00 0.00 0.00 0.00 0.00 0.00
0.00 0.00 0.00 0.00 0.00 0.00 0.00 0.00 0.00 0.00 0.00 0.00 0.00 0.00 0.00 0.00 0.00 0.00 0.00 0.00 0.00 0.00
0.00 0.00 0.00 0.00 0.00 0.00 0.00 0.00 0.00 0.00 0.00 0.00 0.00 0.00 0.00 0.00 0.00 0.00 0.00 0.00 0.00 0.00
0.00 0.00 0.00 0.00 0.00 0.00 0.00 0.00 0.00 0.00 0.00 0.00 0.00 0.00 0.00 0.00 0.00 0.00 0.00 0.00 0.00 0.00
MSLP
1017.14 1018.38 1019.52 1020.55 1021.89 1023.30 1024.41 1024.76 1025.67 1025.46 1025.94 1025.96 1026.87 1027.01 1027.31 1027.66 1027.88 1028.35 1028.57 1028.68 1029.01 1029.17
1017.80 1018.74 1020.03 1021.33 1022.53 1023.81 1024.38 1025.30 1025.83 1025.95 1026.21 1026.64 1027.06 1027.45 1027.81 1028.25 1028.33 1028.88 1029.21 1029.37 1029.61 1030.00
1018.54 1019.65 1020.58 1021.71 1022.92 1024.20 1025.39 1025.45 1025.78 1026.64 1027.02 1027.25 1027.67 1028.00 1028.14 1028.59 1028.96 1029.24 1029.74 1029.98 1030.12 1030.19
1019.22 1020.44 1021.36 1022.27 1023.82 1024.67 1025.30 1025.80 1026.04 1026.89 1027.72 1027.68 1027.96 1028.23 1028.45 1028.95 1029.30 1029.84 1030.29 1030.54 1030.61 1030.79
1020.36 1020.75 1021.84 1023.30 1024.45 1024.53 1025.81 1025.99 1026.42 1027.36 1027.91 1027.92 1028.20 1028.63 1028.89 1029.44 1029.95 1030.23 1030.52 1030.72 1030.85 1031.09
1021.18 1021.80 1022.77 1023.99 1024.69 1025.40 1026.16 1026.61 1027.05 1027.64 1028.10 1028.24 1028.78 1029.35 1029.48 1029.80 1030.32 1030.51 1030.75 1030.90 1031.07 1031.35
1021.86 1022.82 1023.24 1024.83 1025.07 1025.88 1026.54 1026.87 1027.61 1028.16 1028.70 1029.04 1029.45 1029.77 1029.92 1030.17 1030.42 1030.77 1031.17 1031.40 1031.44 1031.57
1022.06 1023.25 1024.34 1025.00 1025.65 1026.23 1026.73 1027.45 1028.35 1028.61 1028.98 1029.33 1029.60 1029.94 1030.23 1030.53 1030.71 1030.96 1031.28 1031.57 1031.76 1031.82
1022.82 1023.81 1025.04 1025.65 1026.29 1026.72 1027.38 1028.19 1028.64 1028.96 1029.29 1029.51 1029.92 1030.23 1030.57 1030.80 1030.86 1031.13 1031.22 1031.43 1031.51 1031.61
1023.47 1024.61 1025.48 1026.21 1026.58 1027.17 1027.74 1028.43 1028.90 1029.18 1029.60 1029.91 1030.30 1030.60 1030.86 1031.30 1031.24 1031.34 1031.09 1031.23 1031.67 1031.58
1024.25 1025.33 1025.91 1026.38 1026.90 1027.49 1028.18 1028.76 1029.22 1029.51 1029.95 1030.12 1030.68 1030.83 1031.10 1031.39 1031.28 1031.20 1031.24 1031.78 1031.76 1031.79
1024.77 1025.56 1026.27 1026.87 1027.57 1028.21 1028.72 1029.17 1029.50 1029.70 1030.02 1030.43 1030.92 1031.21 1031.30 1031.14 1031.12 1031.36 1031.46 1031.77 1031.87 1032.12
1025.23 1025.95 1026.62 1027.45 1028.05 1028.74 1029.09 1029.34 1029.74 1030.14 1030.65 1031.04 1031.40 1031.63 1031.59 1031.73 1031.66 1031.55 1031.65 1031.53 1031.57 1031.60
1025.96 1026.64 1027.15 1027.80 1028.43 1028.98 1029.29 1029.79 1030.23 1030.54 1030.99 1031.35 1031.79 1031.97 1032.22 1032.14 1032.10 1031.71 1031.82 1031.57 1031.50 1031.65
Thickness
5588 5579 5572 5564 5553 5542 5531 5528 5517 5519 5514 5512 5501 5497 5491 5485 5480 5472 5466 5459 5452 5445
5574 5568 5558 5548 5538 5527 5521 5515 5511 5506 5502 5495 5489 5483 5477 5470 5466 5457 5450 5444 5437 5428
5560 5552 5545 5536 5524 5517 5508 5506 5500 5491 5485 5480 5474 5469 5464 5457 5450 5444 5434 5427 5420 5415
5547 5537 5530 5525 5512 5505 5499 5492 5489 5479 5469 5467 5462 5456 5451 5444 5436 5426 5419 5412 5407 5400
5529 5526 5519 5508 5498 5496 5483 5480 5477 5467 5459 5456 5451 5444 5437 5428 5420 5413 5407 5401 5394 5385
5512 5511 5504 5493 5485 5478 5471 5467 5462 5455 5449 5445 5436 5427 5423 5416 5408 5402 5395 5388 5379 5370
5501 5495 5489 5477 5474 5467 5460 5456 5449 5442 5435 5429 5421 5415 5410 5403 5396 5388 5379 5370 5363 5354
5490 5480 5472 5467 5461 5455 5452 5445 5435 5430 5424 5418 5411 5404 5397 5389 5382 5374 5365 5355 5347 5338
5474 5469 5460 5455 5449 5446 5439 5429 5425 5420 5415 5409 5400 5392 5384 5376 5369 5360 5352 5343 5335 5326
5463 5455 5449 5442 5440 5435 5429 5421 5414 5409 5401 5394 5385 5378 5371 5361 5354 5346 5340 5331 5319 5311
5450 5443 5439 5437 5433 5427 5419 5411 5403 5397 5389 5382 5371 5364 5356 5347 5340 5334 5324 5310 5304 5294
5443 5438 5432 5426 5419 5412 5406 5398 5392 5386 5379 5370 5361 5353 5344 5338 5329 5318 5310 5300 5289 5277
5434 5428 5423 5416 5409 5399 5393 5388 5381 5373 5364 5357 5345 5338 5330 5319 5311 5305 5297 5287 5275 5266
5423 5417 5413 5405 5397 5389 5384 5375 5367 5360 5351 5343 5333 5323 5313 5305 5297 5291 5279 5271 5262 5251